Location: Carrières
(48.9495°N, 2.0407°E)
Time: 12:31:03
(UTC+00:00)

Meteor 2-5 Rocket - Pass Details

Date: 28 January 2023
Orbit: 832 x 912 km, 81.2° (Epoch: 22 March)

Event Time Altitude Azimuth Distance (km) Brightness Sun altitude
Rises 17:12:05 0° 189° (S) 3,511 7.4 -5.3°
Reaches altitude 10° 17:14:33 10° 189° (S) 2,567 6.7 -5.7°
Maximum altitude 17:20:24 88° 103° (ESE) 894 3.9 -6.6°
Drops below altitude 10° 17:26:12 10° 12° (NNE) 2,533 5.9 -7.5°
Sets 17:28:37 0° 13° (NNE) 3,463 6.6 -7.8°
